Marshfield, WI

9:32 AM CDT on June 22, 2017 (GMT -0500)
Marshfield Municipal

Weather History for KMFI - January, 2012

Change the Weather History Date:

Monday, January 23, 2012

  Actual Average Record
Temperature  
Mean Temperature 26 °F -  
Max Temperature 30 °F 26 °F 47 °F (1942)
Min Temperature 21 °F 8 °F -37 °F (1963)
Degree Days  
Heating Degree Days 38    
Moisture  
Dew Point 23 °F    
Average Humidity 86    
Maximum Humidity 93    
Minimum Humidity 74    
Precipitation  
Precipitation 0.07 in - - ()
Sea Level Pressure  
Sea Level Pressure 29.44 in    
Wind  
Wind Speed 11 mph (NW)    
Max Wind Speed 20 mph    
Max Gust Speed 29 mph    
Visibility 3 miles    
Events Fog , Snow    
Averages and records for this station are not official NWS values.
T = Trace of Precipitation, MM = Missing Value Source: NWS Daily Summary

Daily Weather History Graph

Daily Weather History Graph

Search for Another Location

Airport or City:

Trip Planner

Search our weather history database for the weather conditions in past years. The results will help you decide how hot, cold, wet, or windy it might be!

Date:

Astronomy

Jan. 23, 2012 Rise Set
Actual Time 7:29 AM CST 4:56 PM CST
Civil Twilight 6:57 AM CST 5:28 PM CST
Nautical Twilight 6:21 AM CST 6:03 PM CST
Astronomical Twilight 5:47 AM CST 6:38 PM CST
Moon 7:22 AM CST (1/23) 5:47 PM CST (1/23)
Length of Visible Light 10h 31m
Length of Day
9h 27m
New Moon, 0% of the Moon is Illuminated
Jan 23
New Moon
Jan 30
First Quarter
Feb 7
Full
Feb 14
Last Quarter
Feb 21
New

Hourly Weather History & Observations

Time (CST) Temp. Windchill Dew Point Humidity Pressure Visibility Wind Dir Wind Speed Gust Speed Precip Events Conditions
12:54 AM 28.9 °F 21.1 °F 26.1 °F 89% 29.48 in 1.0 mi ENE 8.1 mph - N/A   Overcast
1:36 AM 28.4 °F 21.2 °F 26.6 °F 93% 29.44 in 1.2 mi ENE 6.9 mph - N/A   Overcast
1:54 AM 28.9 °F 20.4 °F 27.0 °F 92% 29.45 in 1.2 mi NE 9.2 mph - N/A   Overcast
2:54 AM 28.9 °F 21.1 °F 27.0 °F 92% 29.42 in 1.8 mi NNE 8.1 mph - N/A   Overcast
3:31 AM 28.4 °F 20.4 °F 26.6 °F 93% 29.34 in 3.0 mi ENE 8.1 mph - 0.00 in   Overcast
3:54 AM 28.9 °F 21.9 °F 27.0 °F 92% 29.39 in 3.0 mi NNE 6.9 mph - 0.01 in Snow Light Snow
4:03 AM 30.2 °F 24.3 °F 26.6 °F 86% 29.34 in 2.0 mi North 5.8 mph - 0.00 in Snow Light Snow
4:18 AM 30.2 °F 24.3 °F 26.6 °F 86% 29.33 in 2.0 mi North 5.8 mph - 0.01 in Snow Light Snow
4:25 AM 30.2 °F 24.3 °F 26.6 °F 86% 29.33 in 1.5 mi North 5.8 mph - 0.01 in Snow Light Snow
4:41 AM 28.4 °F 21.2 °F 26.6 °F 93% 29.33 in 1.5 mi NNW 6.9 mph - 0.02 in Snow Light Snow
4:54 AM 28.9 °F 21.1 °F 27.0 °F 92% 29.37 in 1.5 mi North 8.1 mph - 0.02 in Snow Light Snow
5:19 AM 28.4 °F 23.3 °F 26.6 °F 93% 29.31 in 1.8 mi NNE 4.6 mph - 0.01 in Snow Light Snow
5:27 AM 30.2 °F 23.4 °F 26.6 °F 86% 29.31 in 2.0 mi North 6.9 mph - 0.01 in Snow Light Snow
5:35 AM 28.4 °F 20.4 °F 26.6 °F 93% 29.31 in 1.8 mi NNW 8.1 mph - 0.01 in Snow Light Snow
5:49 AM 28.4 °F 19.1 °F 26.6 °F 93% 29.32 in 0.8 mi NNW 10.4 mph - 0.02 in Snow Light Snow
5:50 AM 28.9 °F 19.8 °F 27.0 °F 92% 29.37 in 0.8 mi NNW 10.4 mph - 0.02 in Snow Light Snow
5:58 AM 28.4 °F 19.7 °F 26.6 °F 93% 29.31 in 0.8 mi NNW 9.2 mph - 0.00 in Snow Light Snow
6:09 AM 28.4 °F 19.7 °F 26.6 °F 93% 29.32 in 1.2 mi NW 9.2 mph - 0.00 in Snow Light Snow
6:18 AM 28.4 °F 19.1 °F 26.6 °F 93% 29.32 in 1.5 mi NW 10.4 mph - 0.01 in Snow Light Snow
6:38 AM 28.4 °F 18.0 °F 26.6 °F 93% 29.32 in 1.0 mi NNW 12.7 mph - 0.01 in Snow Light Snow
6:52 AM 28.4 °F 17.5 °F 26.6 °F 93% 29.32 in 0.8 mi NNW 13.8 mph - 0.01 in Snow Light Snow
6:54 AM 28.9 °F 18.6 °F 26.1 °F 89% 29.37 in 0.8 mi NNW 12.7 mph - 0.01 in Snow Light Snow
7:02 AM 28.4 °F 17.5 °F 26.6 °F 93% 29.32 in 1.0 mi NNW 13.8 mph - 0.00 in Snow Light Snow
7:12 AM 28.4 °F 17.0 °F 24.8 °F 86% 29.32 in 1.5 mi NNW 15.0 mph - 0.00 in Snow Light Snow
7:35 AM 28.4 °F 17.5 °F 24.8 °F 86% 29.32 in 1.5 mi NNW 13.8 mph - 0.00 in Snow Light Snow
7:54 AM 28.0 °F 16.5 °F 25.0 °F 88% 29.37 in 1.8 mi NW 15.0 mph - 0.00 in Snow Light Snow
8:01 AM 28.4 °F 17.0 °F 24.8 °F 86% 29.33 in 2.0 mi NW 15.0 mph - 0.00 in Snow Light Snow
8:20 AM 28.4 °F 17.0 °F 24.8 °F 86% 29.33 in 1.5 mi NW 15.0 mph - 0.00 in Snow Light Snow
8:34 AM 26.6 °F 14.7 °F 24.8 °F 93% 29.34 in 2.5 mi NW 15.0 mph - 0.00 in Snow Light Snow
8:40 AM 26.6 °F 14.3 °F 24.8 °F 93% 29.34 in 3.0 mi NW 16.1 mph - 0.00 in Snow Light Snow
8:49 AM 26.6 °F 13.8 °F 24.8 °F 93% 29.35 in 2.0 mi NW 17.3 mph - 0.00 in Snow Light Snow
8:54 AM 27.0 °F 15.2 °F 23.0 °F 85% 29.40 in 2.0 mi NW 15.0 mph - 0.00 in Snow Light Snow
9:08 AM 26.6 °F 14.7 °F 23.0 °F 86% 29.36 in 2.0 mi NW 15.0 mph - 0.00 in Snow Light Snow
9:16 AM 26.6 °F 15.2 °F 23.0 °F 86% 29.36 in 1.2 mi NW 13.8 mph - 0.00 in Snow Light Snow
9:26 AM 26.6 °F 15.2 °F 23.0 °F 86% 29.37 in 0.8 mi NW 13.8 mph - 0.00 in Snow Light Snow
9:54 AM 27.0 °F 14.7 °F 23.0 °F 85% 29.43 in 0.5 mi NW 16.1 mph - 0.01 in Fog , Snow Snow
10:10 AM 26.6 °F 14.3 °F 23.0 °F 86% 29.38 in 1.2 mi NW 16.1 mph - 0.00 in Snow Light Snow
10:17 AM 26.6 °F 14.3 °F 23.0 °F 86% 29.38 in 1.2 mi NW 16.1 mph - 0.00 in Snow Light Snow
10:26 AM 26.6 °F 14.7 °F 23.0 °F 86% 29.39 in 1.2 mi NW 15.0 mph - 0.00 in Snow Light Snow
10:34 AM 26.6 °F 14.7 °F 23.0 °F 86% 29.39 in 1.0 mi NW 15.0 mph - 0.00 in Snow Light Snow
10:54 AM 27.0 °F 15.6 °F 23.0 °F 85% 29.44 in 0.8 mi NW 13.8 mph - 0.00 in Snow Light Snow
11:13 AM 26.6 °F 15.2 °F 23.0 °F 86% 29.39 in 1.0 mi WNW 13.8 mph - 0.00 in Snow Light Snow
11:28 AM 26.6 °F 14.3 °F 23.0 °F 86% 29.39 in 0.8 mi WNW 16.1 mph - 0.00 in Snow Light Snow
11:46 AM 26.6 °F 15.7 °F 23.0 °F 86% 29.39 in 1.8 mi WNW 12.7 mph - 0.00 in Snow Light Snow
11:54 AM 27.0 °F 14.3 °F 21.9 °F 81% 29.44 in 2.5 mi WNW 17.3 mph - 0.00 in Snow Light Snow
12:04 PM 26.6 °F 14.3 °F 21.2 °F 80% 29.40 in 1.2 mi WNW 16.1 mph - 0.00 in Snow Light Snow
12:11 PM 26.6 °F 14.3 °F 21.2 °F 80% 29.40 in 1.0 mi WNW 16.1 mph - 0.00 in Snow Light Snow
12:23 PM 26.6 °F 16.2 °F 21.2 °F 80% 29.40 in 0.8 mi WNW 11.5 mph - 0.00 in Snow Light Snow
12:34 PM 26.6 °F 13.8 °F 21.2 °F 80% 29.41 in 0.8 mi WNW 17.3 mph 23.0 mph 0.00 in Snow Light Snow
12:36 PM 26.6 °F 14.3 °F 21.2 °F 80% 29.41 in 1.0 mi WNW 16.1 mph 23.0 mph 0.00 in Snow Light Snow
12:47 PM 26.6 °F 13.8 °F 21.2 °F 80% 29.41 in 2.0 mi WNW 17.3 mph 24.2 mph 0.00 in Snow Light Snow
12:54 PM 26.1 °F 13.6 °F 21.0 °F 81% 29.46 in 2.0 mi WNW 16.1 mph 23.0 mph 0.00 in Snow Light Snow
1:02 PM 26.6 °F 14.7 °F 21.2 °F 80% 29.41 in 1.2 mi WNW 15.0 mph 25.3 mph 0.00 in Snow Light Snow
1:54 PM 26.1 °F 13.1 °F 19.9 °F 78% 29.49 in 6.0 mi WNW 17.3 mph 25.3 mph 0.00 in Snow Light Snow
2:54 PM 25.0 °F 10.9 °F 19.0 °F 78% 29.54 in 8.0 mi WNW 19.6 mph 28.8 mph 0.00 in   Overcast
3:26 PM 24.8 °F 12.4 °F 19.4 °F 80% 29.50 in 8.0 mi WNW 15.0 mph 24.2 mph 0.00 in   Overcast
3:54 PM 25.0 °F 12.2 °F 19.0 °F 78% 29.57 in 7.0 mi WNW 16.1 mph - 0.00 in   Overcast
4:54 PM 25.0 °F 11.7 °F 18.0 °F 75% 29.62 in 10.0 mi WNW 17.3 mph 24.2 mph N/A   Overcast
5:54 PM 25.0 °F 15.5 °F 19.0 °F 78% 29.66 in 10.0 mi West 9.2 mph - N/A   Overcast
6:51 PM 26.6 °F 14.3 °F 19.4 °F 74% 29.64 in 10.0 mi West 16.1 mph 20.7 mph 0.00 in   Overcast
6:54 PM 26.1 °F 12.7 °F 19.9 °F 78% 29.69 in 10.0 mi WNW 18.4 mph 26.5 mph 0.00 in   Overcast
7:33 PM 26.6 °F 15.7 °F 19.4 °F 74% 29.66 in 10.0 mi WNW 12.7 mph - 0.00 in   Overcast
7:54 PM 25.0 °F 12.6 °F 19.0 °F 78% 29.73 in 10.0 mi WNW 15.0 mph 23.0 mph 0.00 in   Overcast
8:08 PM 24.8 °F 13.4 °F 19.4 °F 80% 29.68 in 10.0 mi West 12.7 mph 25.3 mph N/A   Overcast
8:54 PM 25.0 °F 12.2 °F 19.9 °F 81% 29.75 in 10.0 mi West 16.1 mph 25.3 mph N/A   Overcast
9:54 PM 24.1 °F 12.0 °F 19.0 °F 81% 29.78 in 8.0 mi West 13.8 mph - N/A   Overcast
10:54 PM 23.0 °F 9.6 °F 18.0 °F 81% 29.81 in 9.0 mi WNW 16.1 mph - N/A   Overcast
11:54 PM 21.9 °F 9.8 °F 17.1 °F 82% 29.83 in 9.0 mi WNW 12.7 mph 23.0 mph N/A   Overcast